Baker City Municipal Airport Baker City US
ICAO: KBKE
IATA: BKE
Category: Medium
Scheduled Services: No

Elevation: 3373 ft
TransAlt. 18000 ft.

Airport Communications:
ASOS:134.275
SALT LAKE CITY CNTR:128.05
CTAF/UNICOM:123

KBKE Zoom In..

If Map Doesn't Load, Click Here

Runways:

(A) RW 08 length 3670 ft width 140 ft
---- / hdg 81

(B) RW 13 length 5085 ft width 100 ft
---- / hdg 126

(C) RW 17 length 4359 ft width 75 ft
---- / hdg 165

(D) RW 26 length 3670 ft width 140 ft
---- / hdg 261

(E) RW 31 length 5085 ft width 100 ft
---- / hdg 306

(F) RW 35 length 4359 ft width 75 ft
---- / hdg 345

Location; KBKE
Day. 24 / Time. 04.53 Zulu
* Altimeter: 30.09
* Temperature: 07° c. 44.6°f.
* Wind from: 260° Speed 07 kn.
Dewpoint: -03° c.
Visibility: 10 Statute Miles.
Clouds: Clear (automated report).

KBKE 240453Z AUTO 26007KT 10SM CLR 07/M03 A3009 RMK AO2 SLP188 T00671028


Wind From 260°
Speed 07 kn.

 
 
jpsmedia.com for Web Design worldairports.se 2018   terms of use